• In Uzbekistan
  • List of Countries
  • For 7 days
  • Water Temperature
  • Satellite Maps
  • Weather Map
  • Weather Widgets
  • user-avatar
    Login

    Hourly Weather Cardoso

    Today, 15 December, Friday

    Time Temperature Precipitation Wind Pressure Humidity
    00:00 +25°C° 0.3 mm 2 mps 724 mmHg 85%
    01:00 +25°C° 0.1 mm 2 mps 724 mmHg 86%
    02:00 +24°C° 0.1 mm 2 mps 724 mmHg 87%
    03:00 +24°C° 0.1 mm 2 mps 723 mmHg 88%
    04:00 +24°C° 0 mm 2 mps 723 mmHg 89%
    05:00 +24°C° 0 mm 2 mps 723 mmHg 90%
    06:00 +23°C° 0 mm 2 mps 724 mmHg 91%
    07:00 +25°C° 0 mm 2 mps 724 mmHg 85%
    08:00 +27°C° 0 mm 3 mps 724 mmHg 79%
    09:00 +28°C° 0 mm 3 mps 725 mmHg 73%
    10:00 +29°C° 0.1 mm 3 mps 725 mmHg 69%
    11:00 +30°C° 0.1 mm 3 mps 724 mmHg 65%
    12:00 +33°C° 0.1 mm 3 mps 724 mmHg 61%
    13:00 +32°C° 0.3 mm 2 mps 724 mmHg 60%
    14:00 +32°C° 0.3 mm 2 mps 723 mmHg 59%
    15:00 +32°C° 0.3 mm 2 mps 723 mmHg 57%
    16:00 +32°C° 0.2 mm 2 mps 722 mmHg 62%
    17:00 +31°C° 0.2 mm 2 mps 722 mmHg 67%
    18:00 +30°C° 0.2 mm 2 mps 722 mmHg 72%
    19:00 +29°C° 0.4 mm 2 mps 722 mmHg 76%
    20:00 +27°C° 0.4 mm 2 mps 722 mmHg 81%
    21:00 +26°C° 0.4 mm 2 mps 722 mmHg 85%
    22:00 +26°C° 0.5 mm 2 mps 722 mmHg 87%
    23:00 +25°C° 0.5 mm 2 mps 723 mmHg 88%

    Tomorrow, 16 December, Saturday

    Time Temperature Precipitation Wind Pressure Humidity
    00:00 +25°C° 0.5 mm 2 mps 723 mmHg 90%
    01:00 +25°C° 1.2 mm 2 mps 723 mmHg 91%
    02:00 +24°C° 1.2 mm 2 mps 722 mmHg 91%
    03:00 +24°C° 1.2 mm 2 mps 722 mmHg 92%
    04:00 +24°C° 0 mm 2 mps 722 mmHg 93%
    05:00 +24°C° 0 mm 2 mps 723 mmHg 93%
    06:00 +24°C° 0 mm 2 mps 723 mmHg 94%
    07:00 +25°C° 0.1 mm 3 mps 724 mmHg 88%
    08:00 +27°C° 0.1 mm 3 mps 724 mmHg 83%
    09:00 +28°C° 0.1 mm 3 mps 725 mmHg 77%
    10:00 +29°C° 0.7 mm 3 mps 725 mmHg 73%
    11:00 +30°C° 0.7 mm 3 mps 724 mmHg 69%
    12:00 +31°C° 0.7 mm 2 mps 724 mmHg 65%
    13:00 +31°C° 0.8 mm 2 mps 724 mmHg 64%
    14:00 +32°C° 0.8 mm 2 mps 723 mmHg 63%
    15:00 +32°C° 0.8 mm 2 mps 722 mmHg 62%
    16:00 +31°C° 0.7 mm 2 mps 722 mmHg 65%
    17:00 +31°C° 0.7 mm 1 mps 722 mmHg 68%
    18:00 +30°C° 0.7 mm 1 mps 722 mmHg 71%
    19:00 +29°C° 0.1 mm 2 mps 722 mmHg 75%
    20:00 +28°C° 0.1 mm 2 mps 722 mmHg 78%
    21:00 +26°C° 0.1 mm 2 mps 722 mmHg 82%
    22:00 +26°C° 0 mm 2 mps 723 mmHg 83%
    23:00 +26°C° 0 mm 2 mps 723 mmHg 85%

    Day after tomorrow, 17 December, Sunday

    Time Temperature Precipitation Wind Pressure Humidity
    00:00 +25°C° 0 mm 2 mps 723 mmHg 86%
    01:00 +25°C° 0.1 mm 2 mps 723 mmHg 87%
    02:00 +25°C° 0.1 mm 3 mps 723 mmHg 88%
    03:00 +24°C° 0.1 mm 3 mps 722 mmHg 88%
    04:00 +24°C° 0 mm 3 mps 723 mmHg 89%
    05:00 +24°C° 0 mm 3 mps 723 mmHg 90%
    06:00 +24°C° 0 mm 3 mps 723 mmHg 91%
    07:00 +25°C° 0.2 mm 3 mps 724 mmHg 84%
    08:00 +27°C° 0.2 mm 4 mps 725 mmHg 78%
    09:00 +29°C° 0.2 mm 4 mps 726 mmHg 72%
    10:00 +30°C° 0.6 mm 4 mps 726 mmHg 68%
    11:00 +32°C° 0.6 mm 4 mps 726 mmHg 64%
    12:00 +33°C° 0.6 mm 3 mps 726 mmHg 60%
    13:00 +33°C° 0.9 mm 3 mps 725 mmHg 60%
    14:00 +33°C° 0.9 mm 3 mps 725 mmHg 60%
    15:00 +32°C° 0.9 mm 2 mps 724 mmHg 60%
    16:00 +31°C° 1.3 mm 2 mps 724 mmHg 64%
    17:00 +31°C° 1.3 mm 2 mps 724 mmHg 69%
    18:00 +30°C° 1.3 mm 1 mps 724 mmHg 73%
    19:00 +29°C° 1.3 mm 1 mps 724 mmHg 78%
    20:00 +27°C° 1.3 mm 2 mps 725 mmHg 82%
    21:00 +26°C° 1.3 mm 2 mps 725 mmHg 87%
    22:00 +25°C° 0 mm 2 mps 725 mmHg 88%
    23:00 +25°C° 0 mm 2 mps 725 mmHg 89%

    18 December, Monday

    Time Temperature Precipitation Wind Pressure Humidity
    00:00 +25°C° 0 mm 2 mps 725 mmHg 90%
    01:00 +24°C° 0 mm 2 mps 725 mmHg 90%
    02:00 +24°C° 0 mm 2 mps 724 mmHg 90%
    03:00 +24°C° 0 mm 1 mps 724 mmHg 90%
    04:00 +24°C° 0 mm 2 mps 724 mmHg 90%
    05:00 +23°C° 0 mm 2 mps 724 mmHg 91%
    06:00 +23°C° 0 mm 2 mps 725 mmHg 91%
    07:00 +25°C° 0 mm 2 mps 725 mmHg 84%
    08:00 +27°C° 0 mm 3 mps 726 mmHg 77%
    09:00 +29°C° 0 mm 3 mps 726 mmHg 70%
    10:00 +30°C° 0 mm 3 mps 726 mmHg 65%
    11:00 +31°C° 0 mm 3 mps 726 mmHg 59%
    12:00 +34°C° 0 mm 3 mps 726 mmHg 54%
    13:00 +34°C° 0.1 mm 3 mps 725 mmHg 55%
    14:00 +34°C° 0.1 mm 2 mps 725 mmHg 56%
    15:00 +32°C° 0.1 mm 1 mps 724 mmHg 56%
    16:00 +32°C° 0 mm 1 mps 724 mmHg 58%
    17:00 +32°C° 0 mm 1 mps 724 mmHg 60%
    18:00 +31°C° 0 mm 1 mps 724 mmHg 62%
    19:00 +30°C° 0.1 mm 1 mps 724 mmHg 65%
    20:00 +29°C° 0.1 mm 2 mps 725 mmHg 67%
    21:00 +28°C° 0.1 mm 2 mps 725 mmHg 69%
    22:00 +27°C° 0 mm 2 mps 725 mmHg 70%
    23:00 +27°C° 0 mm 2 mps 725 mmHg 71%

    19 December, Tuesday

    Time Temperature Precipitation Wind Pressure Humidity
    00:00 +26°C° 0 mm 2 mps 725 mmHg 73%
    01:00 +26°C° 0 mm 2 mps 725 mmHg 74%
    02:00 +25°C° 0 mm 2 mps 725 mmHg 76%
    03:00 +25°C° 0 mm 2 mps 725 mmHg 77%
    04:00 +25°C° 0 mm 2 mps 725 mmHg 79%
    05:00 +24°C° 0 mm 2 mps 725 mmHg 80%
    06:00 +24°C° 0 mm 2 mps 726 mmHg 82%
    07:00 +26°C° 0 mm 2 mps 726 mmHg 77%
    08:00 +28°C° 0 mm 3 mps 727 mmHg 71%
    09:00 +29°C° 0 mm 3 mps 727 mmHg 66%
    10:00 +32°C° 0 mm 4 mps 727 mmHg 62%
    11:00 +33°C° 0 mm 4 mps 726 mmHg 57%
    12:00 +34°C° 0 mm 4 mps 726 mmHg 53%
    13:00 +34°C° 0 mm 3 mps 725 mmHg 52%
    14:00 +35°C° 0 mm 3 mps 725 mmHg 51%
    15:00 +35°C° 0 mm 3 mps 724 mmHg 51%
    16:00 +34°C° 0.1 mm 2 mps 724 mmHg 55%
    17:00 +34°C° 0.1 mm 2 mps 724 mmHg 59%
    18:00 +32°C° 0.1 mm 2 mps 723 mmHg 63%
    19:00 +30°C° 0.1 mm 2 mps 724 mmHg 66%
    20:00 +29°C° 0.1 mm 1 mps 724 mmHg 69%
    21:00 +28°C° 0.1 mm 1 mps 724 mmHg 72%
    22:00 +27°C° 0.1 mm 1 mps 724 mmHg 74%
    23:00 +27°C° 0.1 mm 2 mps 724 mmHg 76%

    20 December, Wednesday

    Time Temperature Precipitation Wind Pressure Humidity
    00:00 +26°C° 0.1 mm 2 mps 724 mmHg 78%
    01:00 +26°C° 0.6 mm 2 mps 724 mmHg 82%
    02:00 +25°C° 0.6 mm 2 mps 724 mmHg 85%
    03:00 +24°C° 0.6 mm 2 mps 723 mmHg 89%
    04:00 +24°C° 0.4 mm 2 mps 724 mmHg 89%
    05:00 +24°C° 0.4 mm 2 mps 724 mmHg 90%
    06:00 +24°C° 0.4 mm 2 mps 725 mmHg 90%
    07:00 +26°C° 0.1 mm 3 mps 725 mmHg 84%
    08:00 +27°C° 0.1 mm 4 mps 725 mmHg 78%
    09:00 +29°C° 0.1 mm 4 mps 726 mmHg 72%
    10:00 +30°C° 0.3 mm 4 mps 725 mmHg 68%
    11:00 +32°C° 0.3 mm 4 mps 725 mmHg 63%
    12:00 +33°C° 0.3 mm 4 mps 725 mmHg 59%
    13:00 +33°C° 0.2 mm 4 mps 724 mmHg 58%
    14:00 +33°C° 0.2 mm 4 mps 724 mmHg 57%
    15:00 +34°C° 0.2 mm 3 mps 723 mmHg 56%
    16:00 +33°C° 0 mm 3 mps 723 mmHg 60%
    17:00 +31°C° 0 mm 2 mps 722 mmHg 63%
    18:00 +31°C° 0 mm 2 mps 722 mmHg 67%
    19:00 +30°C° 0 mm 2 mps 722 mmHg 69%
    20:00 +28°C° 0 mm 1 mps 723 mmHg 71%
    21:00 +27°C° 0 mm 1 mps 723 mmHg 73%
    22:00 +27°C° 0 mm 1 mps 723 mmHg 74%
    23:00 +27°C° 0 mm 2 mps 723 mmHg 76%
    Show more